Retour au catalogue

STARLINK-37664

ActifCommunicationsSSO
NORAD 69044·PAYLOAD·🇺🇸 United States

Lancé May 6, 2026 depuis Vandenberg Space Force Base

Loading…

Prochains Passages (prochaines 24 heures)

TLE

FraisSource: CelesTrak SupGP

Époque: Sep 15, 2026, 02:48 UTC

1 69044C 26101V   26258.11715278 -.00004584  00000+0 -14228-3 0  2588
2 69044  97.2846 111.6880 0002007  93.6801 305.5109 15.33447110    15

Suivez STARLINK-37664 en temps réel avec AllMySat

Download on the App Store